Location: Unspecified
(40.4667°N, 0.0000°E)
Time: 18:21:38
(UTC+00:00)

ISS - Visible Passes

Search period start: 19 May 2019 00:00
Search period end: 29 May 2019 00:00
Orbit: 407 x 410 km, 51.6° (Epoch: 20 May)

Date Brightness Start Highest point End Pass type
(mag) Time Alt. Az. Time Alt. Az. Time Alt. Az.
19 May -0.3 00:06:42 10° NNW 00:08:05 12° N 00:09:28 10° NNE visible
19 May -1.2 01:42:57 10° NNW 01:45:37 22° NNE 01:48:16 10° ENE visible
19 May -3.9 03:19:09 10° WNW 03:22:25 63° SW 03:25:42 10° SE visible
19 May -3.6 19:59:30 10° SW 20:02:41 49° SE 20:05:53 10° ENE visible
19 May -1.4 21:36:37 10° W 21:39:24 24° NNW 21:42:12 10° NNE visible
19 May -0.3 23:15:26 10° NNW 23:16:53 12° N 23:18:19 10° NNE visible
20 May -0.8 00:52:15 10° NNW 00:54:30 17° NNE 00:56:44 10° ENE visible
20 May -3.6 02:28:15 10° NW 02:31:33 68° NNE 02:34:50 10° ESE visible
20 May -1.9 04:06:10 10° W 04:07:44 13° SW 04:09:18 10° SSW visible
20 May -2.1 20:45:17 10° W 20:48:23 36° NNW 20:51:29 10° NE visible
20 May -0.5 22:23:55 10° NW 22:25:40 13° N 22:27:26 10° NNE visible
21 May -0.5 00:01:31 10° NNW 00:03:20 14° N 00:04:30 12° NNE visible
21 May -1.6 03:19:20 12° S 03:19:20 12° S 03:19:44 10° S visible
21 May -3.2 19:54:08 10° WSW 19:57:24 62° NW 20:00:41 10° NE visible
21 May -0.7 21:32:19 10° WNW 21:34:29 16° NNW 21:36:40 10° NNE visible
21 May -0.4 23:10:38 10° NNW 23:12:07 12° N 23:13:36 10° NNE visible
22 May -0.6 00:46:43 10° NW 00:46:55 11° NNW 00:46:55 11° NNW visible
22 May -1.0 20:40:45 10° WNW 20:43:20 21° NNW 20:45:56 10° NNE visible
22 May -0.5 22:19:30 10° NNW 22:20:53 12° N 22:22:15 10° NNE visible
22 May -0.7 23:56:00 10° NNW 23:57:15 16° N 23:57:15 16° N visible
23 May -1.6 19:49:18 10° W 19:52:14 29° NNW 19:55:11 10° NE visible
23 May -0.6 21:28:04 10° NW 21:29:38 13° N 21:31:12 10° NNE visible
23 May -0.8 23:05:15 10° NNW 23:07:16 15° NNE 23:07:45 15° NNE visible
24 May -0.7 20:36:27 10° NW 20:38:23 15° NNW 20:40:20 10° NNE visible
24 May -0.7 22:14:25 10° NNW 22:16:03 13° N 22:17:40 10° NE visible
24 May -0.7 23:50:23 10° NW 23:51:00 14° NNW 23:51:00 14° NNW visible
25 May -0.7 21:23:23 10° NNW 21:24:46 12° N 21:26:09 10° NNE visible
25 May -1.2 22:59:37 10° NNW 23:01:37 21° N 23:01:37 21° N visible
26 May -0.7 20:32:03 10° NNW 20:33:29 12° N 20:34:54 10° NNE visible
26 May -1.2 22:08:51 10° NNW 22:11:06 17° NNE 22:12:14 15° NE visible
26 May -0.6 23:44:50 10° NW 23:44:57 11° NW 23:44:57 11° NW visible
27 May -0.9 21:18:02 10° NNW 21:19:50 14° N 21:21:40 10° NE visible
27 May -1.4 22:53:57 10° NW 22:55:36 24° NNW 22:55:36 24° NNW visible
28 May -0.9 20:27:04 10° NNW 20:28:33 12° N 20:30:01 10° NNE visible
28 May -2.0 22:03:08 10° NW 22:05:59 26° NNE 22:06:15 26° NE visible
